This demonstration page uses our WeatherBlox Daily Observations layout. Learn more.

Left ArrowRight Arrow

Hourly Observations for August 5, 2020

Temp ( °F °C ) Dew Point ( °F °C ) Humidity (%) Winds ( mph kmh ) Pressure ( in mb ) Visibility ( mi km ) Precip ( " mm )
12:52 am 00:52 Clear 58 14.4 53 11.7 84 84 ESE 3 6 30.09 1019 10 16 0.00 0.00
1:52 am 01:52 Clear 57 13.9 53 11.7 87 87 SE 3 6 30.08 1019 10 16 0.00 0.00
2:52 am 02:52 Clear 56 13.3 52 11.1 87 87 SE 3 6 30.08 1019 10 16 0.00 0.00
3:52 am 03:52 Clear 55 12.8 52 11.1 90 90 E 7 11 30.05 1018 10 16 0.00 0.00
4:52 am 04:52 Clear 57 13.9 52 11.1 83 83 SE 3 6 30.06 1018 10 16 0.00 0.00
5:52 am 05:52 Clear 56 13.3 53 11.7 90 90 SE 7 11 30.07 1018 10 16 0.00 0.00
6:52 am 06:52 Sunny 58 14.4 54 12.2 87 87 SSE 3 6 30.10 1019 10 16 0.00 0.00
7:52 am 07:52 Sunny 61 16.1 57 13.9 87 87 SSE 5 7 30.11 1020 10 16 0.00 0.00
8:52 am 08:52 Sunny 65 18.3 57 13.9 76 76 SSE 10 17 30.10 1019 10 16 0.00 0.00
9:52 am 09:52 Mostly Sunny 70 21.1 59 15 68 68 S 13 20 30.10 1019 10 16 0.00 0.00
10:52 am 10:52 Mostly Cloudy 70 21.1 58 14.4 66 66 S 8 13 30.10 1019 10 16 0.00 0.00
11:52 am 11:52 Partly Cloudy 73 22.8 59 15 62 62 VRB 6 9 30.09 1019 10 16 0.00 0.00
12:52 pm 12:52 Partly Cloudy 74 23.3 60 15.6 62 62 Calm 30.09 1019 10 16 0.00 0.00
1:52 pm 13:52 Mostly Sunny 78 25.6 60 15.6 54 54 VRB 5 7 30.06 1018 10 16 0.00 0.00
2:52 pm 14:52 Mostly Sunny 80 26.7 61 16.1 52 52 VRB 3 6 30.04 1017 10 16 0.00 0.00
3:52 pm 15:52 Sunny 80 26.7 59 15 49 49 Calm 30.03 1017 10 16 0.00 0.00
4:52 pm 16:52 Sunny 81 27.2 59 15 47 47 undefined N/A 30.01 1016 10 16 0.00 0.00
5:52 pm 17:52 Sunny 80 26.7 60 15.6 51 51 NE 9 15 30.00 1016 10 16 0.00 0.00
6:52 pm 18:52 Sunny 79 26.1 60 15.6 52 52 ENE 10 17 30.00 1016 10 16 0.00 0.00
7:52 pm 19:52 Sunny 76 24.4 61 16.1 60 60 ENE 8 13 29.99 1016 10 16 0.00 0.00
8:52 pm 20:52 Clear 74 23.3 61 16.1 64 64 E 7 11 30.00 1016 10 16 0.00 0.00
9:52 pm 21:52 Clear 70 21.1 60 15.6 71 71 ESE 7 11 30.01 1016 10 16 0.00 0.00
10:52 pm 22:52 Clear 70 21.1 61 16.1 73 73 SE 9 15 30.02 1017 10 16 0.00 0.00
11:52 pm 23:52 Clear 69 20.6 60 15.6 73 73 SSE 8 13 30.02 1017 10 16 0.00 0.00

Powered by AerisWeather